This is the latest recevied weather packets stored in our database for station/object DD3UTS-13. If no packets are shown the sender has not sent any weather packets the latest 1 day(s).
| Time | Temp. | Humidity | Pressure | Rain* | Wind** | Luminosity | Snow |
|---|---|---|---|---|---|---|---|
| 1777960231 | 12.78° C | 82% | 1009.2 hPa | 0 mm | 3.13 m/s, 242° | 24 W/m² | - |
| 1777959932 | 12.78° C | 81% | 1009.2 hPa | 0 mm | 3.13 m/s, 250° | 22 W/m² | - |
| 1777959633 | 12.78° C | 81% | 1009.1 hPa | 0 mm | 2.68 m/s, 260° | 24 W/m² | - |
| 1777959331 | 12.78° C | 81% | 1009.1 hPa | 0 mm | 3.13 m/s, 257° | 28 W/m² | - |
| 1777959032 | 12.78° C | 81% | 1009.1 hPa | 0 mm | 2.68 m/s, 262° | 24 W/m² | - |
| 1777958732 | 12.78° C | 81% | 1009.1 hPa | 0 mm | 2.24 m/s, 260° | 20 W/m² | - |
| 1777958432 | 12.78° C | 81% | 1009 hPa | 0 mm | 2.68 m/s, 260° | 21 W/m² | - |
| 1777958131 | 12.22° C | 81% | 1009 hPa | 0 mm | 3.13 m/s, 287° | 21 W/m² | - |
| 1777957832 | 12.22° C | 80% | 1009 hPa | 0 mm | 2.68 m/s, 230° | 20 W/m² | - |
| 1777957544 | 12.22° C | 80% | 1009 hPa | 0 mm | 2.68 m/s, 225° | 18 W/m² | - |
| 1777957231 | 12.22° C | 80% | 1008.9 hPa | 0 mm | 2.68 m/s, 215° | 14 W/m² | - |
| 1777956932 | 12.78° C | 79% | 1008.9 hPa | 0 mm | 1.79 m/s, 202° | 11 W/m² | - |
| 1777956631 | 12.78° C | 79% | 1008.7 hPa | 0 mm | 1.79 m/s, 312° | 12 W/m² | - |
| 1777956331 | 12.78° C | 79% | 1008.7 hPa | 0 mm | 2.24 m/s, 232° | 14 W/m² | - |
| 1777956032 | 12.78° C | 79% | 1008.8 hPa | 0 mm | 1.34 m/s, 237° | 19 W/m² | - |
| 1777955732 | 12.78° C | 79% | 1008.8 hPa | 0 mm | 1.79 m/s, 240° | 21 W/m² | - |
| 1777955431 | 12.22° C | 78% | 1008.7 hPa | 0 mm | 1.34 m/s, 262° | 21 W/m² | - |
| 1777955131 | 12.22° C | 78% | 1008.8 hPa | 0 mm | 1.34 m/s, 275° | 14 W/m² | - |
| 1777954831 | 12.22° C | 78% | 1008.8 hPa | 0 mm | 1.34 m/s, 270° | 10 W/m² | - |
| 1777954532 | 12.22° C | 77% | 1008.8 hPa | 0 mm | 0 m/s | 6 W/m² | - |
| 1777954232 | 12.78° C | 77% | 1008.7 hPa | 0 mm | 0.89 m/s, 270° | 5 W/m² | - |
| 1777953931 | 12.78° C | 77% | 1008.8 hPa | 0 mm | 1.34 m/s, 265° | 1 W/m² | - |
| 1777953632 | 12.78° C | 76% | 1008.8 hPa | 0 mm | 0 m/s | 0 W/m² | - |
| 1777953331 | 12.78° C | 76% | 1008.8 hPa | 0 mm | 0 m/s | 0 W/m² | - |
| 1777953032 | 12.78° C | 76% | 1008.8 hPa | 0 mm | 1.79 m/s, 262° | 0 W/m² | - |
* Rain latest 24 hours (hover to see other rain measurements)
** Current wind speed in m/s (hover to see current wind gust speed)